This is the latest recevied weather packets stored in our database for station/object KD2SIG. If no packets are shown the sender has not sent any weather packets the latest 10 day(s).
| Time | Temp. | Humidity | Pressure | Rain* | Wind** | Luminosity | Snow |
|---|---|---|---|---|---|---|---|
| 1777807810 | 4.44° C | 84% | 1013.5 hPa | 0 mm | - | 98 W/m² | - |
| 1777807508 | 4.44° C | 84% | 1013.6 hPa | 0 mm | - | 98 W/m² | - |
| 1777807204 | 4.44° C | 84% | 1013.2 hPa | 0 mm | - | 89 W/m² | - |
| 1777806901 | 3.89° C | 85% | 1013.3 hPa | 0 mm | - | 84 W/m² | - |
| 1777806596 | 3.89° C | 86% | 1013.6 hPa | 0 mm | - | 75 W/m² | - |
| 1777806293 | 3.89° C | 86% | 1013.2 hPa | 0 mm | - | 58 W/m² | - |
| 1777805990 | 3.89° C | 87% | 1013.4 hPa | 0 mm | - | 46 W/m² | - |
| 1777805686 | 3.89° C | 88% | 1013.4 hPa | 0 mm | - | 39 W/m² | - |
| 1777805384 | 3.89° C | 88% | 1013.3 hPa | 0 mm | - | 32 W/m² | - |
| 1777805082 | 3.89° C | 89% | 1013.1 hPa | 0 mm | - | 25 W/m² | - |
| 1777804779 | 3.33° C | 89% | 1013.1 hPa | 0 mm | - | 22 W/m² | - |
| 1777804477 | 3.33° C | 90% | 1013.2 hPa | 0 mm | - | 18 W/m² | - |
| 1777804174 | 3.33° C | 90% | 1013 hPa | 0 mm | - | 14 W/m² | - |
| 1777803871 | 3.33° C | 91% | 1013.1 hPa | 0 mm | - | 11 W/m² | - |
| 1777803566 | 3.33° C | 91% | 1012.9 hPa | 0 mm | - | 10 W/m² | - |
| 1777803264 | 3.33° C | 91% | 1013.1 hPa | 0 mm | - | 7 W/m² | - |
| 1777802961 | 2.78° C | 91% | 1013.4 hPa | 0 mm | - | 5 W/m² | - |
| 1777802659 | 2.78° C | 91% | 1013 hPa | 0 mm | - | 3 W/m² | - |
| 1777802356 | 2.78° C | 91% | 1013.3 hPa | 0 mm | - | 2 W/m² | - |
| 1777802055 | 3.33° C | 91% | 1013.3 hPa | 0 mm | - | 0 W/m² | - |
| 1777801752 | 2.78° C | 92% | 1013.2 hPa | 0 mm | - | 0 W/m² | - |
| 1777801449 | 3.33° C | 91% | 1013.2 hPa | 0 mm | - | 0 W/m² | - |
| 1777801145 | 3.33° C | 91% | 1013.2 hPa | 0 mm | - | 0 W/m² | - |
| 1777800842 | 2.78° C | 91% | 1012.9 hPa | 0 mm | - | 0 W/m² | - |
| 1777800537 | 3.33° C | 91% | 1013.1 hPa | 0 mm | - | 0 W/m² | - |
* Rain latest hour (hover to see other rain measurements)
** Current wind speed in m/s (hover to see current wind gust speed)